Hourly Data Report for September 14, 2017

All times are specified in Local Standard Time (LST). Add 1 hour to adjust for Daylight Saving Time where and when it is observed.

GJOA HAVEN A
NUNAVUT

68°38'08.000" N
95°51'01.000" W
46.90 m
2302337
71597
YHK

Download Data

Hourly Data (September 2017)
Hourly Data Report for September 14, 2017
Temp Definition
°C
Dew Point Temp Definition
°C
Rel Hum Definition
%
Wind Dir Definition
10's deg

Wind Spd Definition
km/h
Visibility Definition
km
Stn Press Definition
kPa
Hmdx Definition


Wind Chill Definition


Weather Definition


TIME
00:00 Legend Double Dagger 2.1 2.1 100 26 11 11.3 100.96     LegendNANA
01:00 Legend Double Dagger 1.8 1.8 100 26 15 16.1 100.98     LegendNANA
02:00 Legend Double Dagger 0.8 0.8 100 26 11 16.1 100.99     LegendNANA
03:00 Legend Double Dagger 1.4 1.4 100 25 13 16.1 100.99     LegendNANA
04:00 Legend Double Dagger 1.6 1.6 100 26 17 16.1 100.99     LegendNANA
05:00 Legend Double Dagger 1.2 1.2 100 29 17 4.0 101.02     Fog
06:00 Legend Double Dagger 0.5 0.4 99 31 21 16.1 101.05     LegendNANA
07:00 Legend Double Dagger -0.3 -0.3 100 30 24 16.1 101.05   -6 LegendNANA
08:00 Legend Double Dagger -0.2 -0.5 98 30 22 16.1 101.04   -6 LegendNANA
09:00 Legend Double Dagger -0.2 -1.2 93 29 21 16.1 101.04   -6 LegendNANA
10:00 Legend Double Dagger 0.0 -1.0 93 29 24 14.5 101.05   -6 LegendNANA
11:00 Legend Double Dagger 0.5 -0.5 93 29 21 9.7 101.05     Fog
12:00 Legend Double Dagger 1.1 -0.3 90 29 21 12.9 101.04     LegendNANA
13:00 Legend Double Dagger 1.5 -0.4 88 30 24 16.1 101.03     LegendNANA
14:00 Legend Double Dagger 0.9 -0.4 91 30 22 16.1 101.04     LegendNANA
15:00 Legend Double Dagger 0.7 -0.9 89 31 24 16.1 101.04     LegendNANA
16:00 Legend Double Dagger 0.3 -1.4 89 29 22 16.1 101.03     LegendNANA
17:00 Legend Double Dagger -0.7 -1.7 93 31 21 16.1 101.04   -6 LegendNANA
18:00 Legend Double Dagger -0.6 -1.2 96 31 17 16.1 101.02   -6 LegendNANA
19:00 Legend Double Dagger -1.2 -1.3 99 30 17 4.0 101.00   -6 Fog
20:00 Legend Double Dagger -1.3 -1.6 98 29 13 16.1 100.97   -6 LegendNANA
21:00 Legend Double Dagger -2.0 -2.1 99 28 15 16.1 100.93   -7 LegendNANA
22:00 Legend Double Dagger -2.5 -2.5 100 27 13 2.8 100.90   -7 Fog
23:00 Legend Double Dagger -2.7 -2.7 100 27 11 16.1 100.85   -7 LegendNANA

Notes on Data Quality.

Legend

  • E = Estimated
  • M = Missing
  • NA = Not Available
  • ‡ = Partner data that is not subject to review by the National Climate Archives
Date modified: